START_TIME,STEP,MOV.,AL01,t_acc.,AL02,t_acc.,E37,t_acc.,H21,t_acc.
1979-07-16 12:00:34.470 ,0,0,0.,24.0,0.,24.0,0.,24.0,0.,24.0
1979-07-16 12:00:58.470 ,1,1,2.,24.0,0.,24.0,1.,24.0,0.,24.0
1979-07-16 12:01:22.470 ,1,0,0.,24.0,0.,24.0,0.,24.0,0.,24.0
1979-07-16 12:01:46.470 ,2,1,2.,24.0,0.,24.0,0.,24.0,0.,24.0
1979-07-16 12:02:10.470 ,2,0,0.,24.0,0.,24.0,0.,24.0,0.,24.0
1979-07-16 12:02:34.470 ,3,1,3.,24.0,0.,24.0,0.,24.0,0.,24.0
1979-07-16 12:02:58.470 ,3,0,0.,24.0,0.,24.0,0.,24.0,0.,24.0
1979-07-16 12:03:22.470 ,4,1,0.,24.0,0.,24.0,0.,24.0,0.,24.0
1979-07-16 12:03:46.470 ,4,0,1.,24.0,0.,24.0,0.,24.0,0.,24.0
1979-07-16 12:04:10.470 ,5,1,0.,24.0,0.,24.0,0.,24.0,0.,24.0
1979-07-16 12:04:34.470 ,5,0,0.,24.0,0.,24.0,0.,24.0,0.,24.0
1979-07-16 12:04:58.470 ,6,1,0.,24.0,0.,24.0,0.,24.0,0.,24.0
1979-07-16 12:05:22.470 ,6,0,2.,24.0,0.,24.0,0.,24.0,0.,24.0
1979-07-16 12:05:46.470 ,7,1,5.,24.0,0.,24.0,0.,24.0,0.,24.0
1979-07-16 12:06:10.470 ,7,0,33.,24.0,0.,24.0,0.,24.0,0.,24.0
1979-07-16 12:06:34.470 ,7,1,38.,24.0,0.,24.0,0.,24.0,0.,24.0
1979-07-16 12:06:58.470 ,7,0,29.,24.0,0.,24.0,0.,24.0,0.,24.0
1979-07-16 12:07:22.470 ,6,1,25.,24.0,0.,24.0,0.,24.0,0.,24.0
1979-07-16 12:07:46.470 ,6,0,0.,24.0,0.,24.0,0.,24.0,0.,24.0
1979-07-16 12:09:46.470 ,0,0,1.,24.0,0.,24.0,0.,24.0,0.,24.0
1979-07-16 12:10:10.470 ,0,0,1.,24.0,0.,24.0,0.,24.0,0.,24.0
1979-07-16 12:10:34.470 ,2,1,0.,24.0,0.,24.0,0.,24.0,0.,24.0
1979-07-16 12:10:58.470 ,2,0,0.,24.0,0.,24.0,1.,24.0,0.,24.0
1979-07-16 12:12:10.470 ,0,0,1.,24.0,1.,24.0,0.,24.0,0.,24.0
1979-07-16 12:12:34.470 ,0,0,0.,24.0,0.,24.0,0.,24.0,0.,24.0
1979-07-16 12:12:58.470 ,0,1,0.,24.0,0.,24.0,0.,24.0,0.,24.0
1979-07-16 12:13:22.470 ,0,0,0.,24.0,0.,24.0,0.,24.0,0.,24.0
1979-07-16 12:13:46.470 ,1,1,0.,24.0,0.,24.0,0.,24.0,0.,24.0
1979-07-16 12:14:10.470 ,1,0,1.,24.0,0.,24.0,0.,24.0,0.,24.0
1979-07-16 12:15:22.470 ,0,0,3.,24.0,0.,24.0,0.,24.0,0.,24.0
1979-07-16 12:15:46.470 ,0,0,0.,24.0,0.,24.0,0.,24.0,0.,24.0
1979-07-16 12:16:10.470 ,4,1,0.,24.0,0.,24.0,0.,24.0,0.,24.0
1979-07-16 12:16:34.470 ,4,0,0.,24.0,0.,24.0,0.,24.0,0.,24.0
1979-07-16 12:16:58.470 ,5,1,2.,24.0,0.,24.0,0.,24.0,0.,24.0
1979-07-16 12:17:22.470 ,5,0,0.,24.0,1.,24.0,0.,24.0,0.,24.0
1979-07-16 12:17:46.470 ,6,1,1.,24.0,0.,24.0,0.,24.0,0.,24.0
1979-07-16 12:18:10.470 ,6,0,0.,24.0,0.,24.0,0.,24.0,0.,24.0
1979-07-16 12:18:34.470 ,7,0,9.,24.0,0.,24.0,0.,24.0,0.,24.0
1979-07-16 12:18:58.470 ,7,0,25.,24.0,0.,24.0,1.,24.0,0.,24.0
1979-07-16 12:19:22.470 ,5,1,23.,24.0,0.,24.0,1.,24.0,0.,24.0
1979-07-16 12:19:46.470 ,1,1,0.,24.0,1.,24.0,0.,24.0,0.,24.0
1979-07-16 12:20:10.470 ,2,1,1.,24.0,0.,24.0,0.,24.0,0.,24.0
1979-07-16 12:20:34.470 ,6,1,0.,24.0,2.,24.0,1.,24.0,0.,24.0
1979-07-16 12:20:58.470 ,5,1,15.,24.0,0.,24.0,0.,24.0,0.,24.0
1979-07-16 12:21:22.470 ,1,1,0.,24.0,1.,24.0,0.,24.0,0.,24.0
1979-07-16 12:21:46.470 ,2,1,0.,24.0,0.,24.0,0.,24.0,0.,24.0
1979-07-16 12:22:10.470 ,6,1,0.,24.0,0.,24.0,0.,24.0,0.,24.0
1979-07-16 12:22:34.470 ,5,1,15.,24.0,0.,24.0,0.,24.0,0.,24.0
1979-07-16 12:22:58.470 ,1,1,1.,24.0,0.,24.0,0.,24.0,0.,24.0
1979-07-16 12:23:22.470 ,2,1,0.,24.0,0.,24.0,0.,24.0,0.,24.0
1979-07-16 12:23:46.470 ,6,1,0.,24.0,1.,24.0,0.,24.0,0.,24.0
1979-07-16 12:24:10.470 ,5,1,8.,24.0,0.,24.0,0.,24.0,0.,24.0
1979-07-16 12:24:34.470 ,1,1,1.,24.0,0.,24.0,1.,24.0,0.,24.0
1979-07-16 12:24:58.470 ,2,1,1.,24.0,0.,24.0,0.,24.0,0.,24.0
1979-07-16 12:25:22.470 ,6,1,0.,24.0,0.,24.0,1.,24.0,0.,24.0
1979-07-16 12:25:46.470 ,5,1,18.,24.0,1.,24.0,0.,24.0,0.,24.0
1979-07-16 12:26:10.470 ,1,1,1.,24.0,0.,24.0,0.,24.0,0.,24.0
1979-07-16 12:26:34.470 ,2,1,0.,24.0,0.,24.0,0.,24.0,0.,24.0
1979-07-16 12:26:58.470 ,6,1,0.,24.0,0.,24.0,0.,24.0,0.,24.0
1979-07-16 12:27:22.470 ,5,1,11.,24.0,0.,24.0,0.,24.0,0.,24.0
1979-07-16 12:27:46.470 ,1,1,0.,24.0,0.,24.0,0.,24.0,0.,24.0
1979-07-16 12:28:10.470 ,2,1,2.,24.0,0.,24.0,0.,24.0,0.,24.0
1979-07-16 12:28:34.470 ,6,1,0.,24.0,0.,24.0,0.,24.0,0.,24.0
1979-07-16 12:28:58.470 ,5,1,18.,24.0,1.,24.0,0.,24.0,0.,24.0
1979-07-16 12:29:22.470 ,1,1,0.,24.0,0.,24.0,0.,24.0,0.,24.0
1979-07-16 12:29:46.470 ,0,0,1.,24.0,0.,24.0,0.,24.0,0.,24.0
1979-07-16 12:30:10.470 ,0,0,1.,24.0,0.,24.0,0.,24.0,0.,24.0
1979-07-16 12:30:34.470 ,5,1,12.,24.0,0.,24.0,1.,24.0,0.,24.0
1979-07-16 12:30:58.470 ,5,0,0.,24.0,0.,24.0,0.,24.0,0.,24.0
1979-07-16 12:31:22.470 ,4,1,0.,24.0,0.,24.0,0.,24.0,0.,24.0
1979-07-16 12:31:46.470 ,4,0,0.,24.0,0.,24.0,0.,24.0,0.,24.0
1979-07-16 12:32:10.470 ,3,1,0.,24.0,0.,24.0,0.,24.0,0.,24.0
1979-07-16 12:32:34.470 ,3,0,0.,24.0,0.,24.0,1.,24.0,0.,24.0
1979-07-16 12:32:58.470 ,2,1,2.,24.0,0.,24.0,1.,24.0,0.,24.0
1979-07-16 12:33:22.470 ,2,0,0.,24.0,1.,24.0,0.,24.0,0.,24.0
1979-07-16 12:33:46.470 ,1,1,2.,24.0,1.,24.0,0.,24.0,0.,24.0
1979-07-16 12:34:10.470 ,1,0,0.,24.0,0.,24.0,0.,24.0,0.,24.0
1979-07-16 12:34:34.470 ,0,1,0.,24.0,0.,24.0,0.,24.0,0.,24.0
1979-07-16 12:34:58.470 ,0,0,0.,24.0,1.,24.0,0.,24.0,0.,24.0
1979-07-16 12:35:22.470 ,0,1,0.,24.0,1.,24.0,0.,24.0,0.,24.0
1979-07-16 12:35:46.470 ,0,0,0.,24.0,0.,24.0,0.,24.0,0.,24.0
1979-07-16 12:36:10.470 ,1,1,1.,24.0,2.,24.0,0.,24.0,0.,24.0
1979-07-16 12:36:34.470 ,1,0,1.,24.0,2.,24.0,1.,24.0,0.,24.0
1979-07-16 12:36:58.470 ,2,1,0.,24.0,2.,24.0,0.,24.0,0.,24.0
1979-07-16 12:37:22.470 ,2,0,1.,24.0,2.,24.0,0.,24.0,0.,24.0
1979-07-16 12:37:46.470 ,3,1,7.,24.0,0.,24.0,0.,24.0,0.,24.0
1979-07-16 12:38:10.470 ,3,0,0.,24.0,1.,24.0,0.,24.0,0.,24.0
1979-07-16 12:38:34.470 ,4,1,0.,24.0,0.,24.0,0.,24.0,0.,24.0
1979-07-16 12:38:58.470 ,4,0,2.,24.0,0.,24.0,0.,24.0,0.,24.0
1979-07-16 12:39:22.470 ,5,1,1.,24.0,0.,24.0,2.,24.0,0.,24.0
1979-07-16 12:39:46.470 ,5,0,0.,24.0,0.,24.0,0.,24.0,0.,24.0
1979-07-16 12:40:10.470 ,6,1,0.,24.0,1.,24.0,0.,24.0,0.,24.0
1979-07-16 12:40:34.470 ,6,0,0.,24.0,0.,24.0,0.,24.0,0.,24.0
1979-07-16 12:40:58.370 ,7,1,8.,24.0,0.,24.0,0.,24.0,0.,24.0
1979-07-16 12:41:22.370 ,7,0,32.,24.0,0.,24.0,0.,24.0,0.,24.0
1979-07-16 12:41:46.370 ,7,1,29.,24.0,0.,24.0,0.,24.0,0.,24.0
1979-07-16 12:42:10.370 ,7,0,37.,24.0,0.,24.0,1.,24.0,0.,24.0
1979-07-16 12:42:34.370 ,6,1,27.,24.0,0.,24.0,0.,24.0,0.,24.0
1979-07-16 12:42:58.370 ,6,0,1.,24.0,0.,24.0,1.,24.0,0.,24.0
1979-07-16 12:44:18.770 ,0,0,4.,24.0,0.,24.0,0.,24.0,0.,24.0
1979-07-16 12:44:34.370 ,0,0,4.,24.0,2.,24.0,0.,24.0,0.,24.0
1979-07-16 12:44:58.370 ,3,1,4.,24.0,0.,24.0,1.,24.0,0.,24.0
1979-07-16 12:45:22.370 ,3,0,0.,24.0,0.,24.0,3.,24.0,0.,24.0
1979-07-16 12:45:46.370 ,2,1,5.,24.0,0.,24.0,1.,24.0,0.,24.0
1979-07-16 12:46:10.370 ,2,0,12.,24.0,0.,24.0,1.,24.0,0.,24.0
1979-07-16 12:46:34.370 ,1,1,6.,24.0,1.,24.0,0.,24.0,0.,24.0
1979-07-16 12:46:58.370 ,1,0,1.,24.0,1.,24.0,0.,24.0,0.,24.0
1979-07-16 12:47:22.370 ,0,1,0.,24.0,0.,24.0,0.,24.0,0.,24.0
1979-07-16 12:47:46.370 ,0,0,0.,24.0,0.,24.0,1.,24.0,0.,24.0
1979-07-16 12:48:10.370 ,0,1,0.,24.0,0.,24.0,0.,24.0,0.,24.0
1979-07-16 12:48:34.370 ,0,0,0.,24.0,0.,24.0,0.,24.0,0.,24.0
1979-07-16 12:48:58.370 ,1,1,3.,24.0,1.,24.0,0.,24.0,0.,24.0
1979-07-16 12:49:22.370 ,1,0,0.,24.0,0.,24.0,0.,24.0,0.,24.0
1979-07-16 12:49:46.370 ,2,1,1.,24.0,0.,24.0,0.,24.0,0.,24.0
1979-07-16 12:50:10.370 ,2,0,3.,24.0,0.,24.0,1.,24.0,0.,24.0
1979-07-16 12:50:34.370 ,3,1,0.,24.0,0.,24.0,0.,24.0,0.,24.0
1979-07-16 12:50:58.370 ,3,0,0.,24.0,0.,24.0,0.,24.0,0.,24.0
1979-07-16 12:51:22.370 ,4,1,0.,24.0,0.,24.0,0.,24.0,0.,24.0
1979-07-16 12:51:46.370 ,4,0,0.,24.0,0.,24.0,0.,24.0,0.,24.0
1979-07-16 12:52:10.370 ,5,1,0.,24.0,0.,24.0,0.,24.0,0.,24.0
1979-07-16 12:52:34.370 ,5,0,0.,24.0,0.,24.0,0.,24.0,0.,24.0
1979-07-16 12:52:58.370 ,6,1,0.,24.0,0.,24.0,1.,24.0,0.,24.0
1979-07-16 12:53:22.370 ,6,0,0.,24.0,0.,24.0,1.,24.0,0.,24.0
1979-07-16 12:53:46.370 ,7,1,10.,24.0,0.,24.0,1.,24.0,0.,24.0
1979-07-16 12:54:10.370 ,7,0,37.,24.0,0.,24.0,0.,24.0,0.,24.0
1979-07-16 12:54:34.370 ,7,1,32.,24.0,0.,24.0,1.,24.0,0.,24.0
1979-07-16 12:54:58.370 ,7,0,36.,24.0,1.,24.0,0.,24.0,0.,24.0
1979-07-16 12:55:22.370 ,6,1,19.,24.0,0.,24.0,0.,24.0,0.,24.0
1979-07-16 12:55:46.370 ,6,0,1.,24.0,0.,24.0,2.,24.0,0.,24.0
1979-07-16 12:56:10.370 ,5,1,0.,24.0,0.,24.0,2.,24.0,0.,24.0
1979-07-16 12:56:34.370 ,5,0,0.,24.0,0.,24.0,2.,24.0,0.,24.0
1979-07-16 12:56:58.370 ,4,1,0.,24.0,1.,24.0,0.,24.0,0.,24.0
1979-07-16 12:57:22.370 ,4,0,0.,24.0,0.,24.0,8.,24.0,0.,24.0
1979-07-16 12:57:46.370 ,3,1,1.,24.0,1.,24.0,1.,24.0,0.,24.0
1979-07-16 12:58:10.370 ,3,0,1.,24.0,0.,24.0,1.,24.0,0.,24.0
1979-07-16 12:58:34.370 ,2,1,3.,24.0,1.,24.0,1.,24.0,0.,24.0
1979-07-16 12:58:58.370 ,2,0,7.,24.0,1.,24.0,1.,24.0,0.,24.0
1979-07-16 12:59:22.370 ,1,1,7.,24.0,0.,24.0,2.,24.0,0.,24.0
1979-07-16 12:59:46.370 ,1,0,5.,24.0,0.,24.0,0.,24.0,0.,24.0
1979-07-16 13:00:10.370 ,0,1,4.,24.0,1.,24.0,1.,24.0,0.,24.0
1979-07-16 13:00:34.370 ,0,0,0.,24.0,0.,24.0,1.,24.0,0.,24.0
1979-07-16 13:00:58.370 ,0,1,0.,24.0,0.,24.0,0.,24.0,0.,24.0
1979-07-16 13:01:22.370 ,0,0,0.,24.0,1.,24.0,2.,24.0,0.,24.0
1979-07-16 13:01:46.370 ,1,1,0.,24.0,0.,24.0,1.,24.0,0.,24.0
1979-07-16 13:02:10.370 ,1,0,2.,24.0,0.,24.0,2.,24.0,0.,24.0
1979-07-16 13:02:34.370 ,2,1,2.,24.0,1.,24.0,2.,24.0,0.,24.0
1979-07-16 13:02:58.370 ,2,0,6.,24.0,1.,24.0,0.,24.0,0.,24.0
1979-07-16 13:03:22.370 ,3,1,9.,24.0,1.,24.0,1.,24.0,0.,24.0
1979-07-16 13:03:46.370 ,3,0,0.,24.0,0.,24.0,0.,24.0,0.,24.0
1979-07-16 13:04:10.370 ,4,1,0.,24.0,0.,24.0,1.,24.0,0.,24.0
1979-07-16 13:04:34.370 ,4,0,1.,24.0,0.,24.0,2.,24.0,0.,24.0
1979-07-16 13:04:58.370 ,5,1,0.,24.0,0.,24.0,1.,24.0,0.,24.0
1979-07-16 13:05:22.370 ,5,0,0.,24.0,0.,24.0,3.,24.0,0.,24.0
1979-07-16 13:05:46.370 ,6,1,0.,24.0,0.,24.0,0.,24.0,0.,24.0
1979-07-16 13:06:10.370 ,6,0,0.,24.0,0.,24.0,2.,24.0,0.,24.0
1979-07-16 13:06:34.370 ,7,0,7.,24.0,0.,24.0,1.,24.0,0.,24.0
1979-07-16 13:06:58.370 ,7,0,33.,24.0,1.,24.0,1.,24.0,0.,24.0
1979-07-16 13:07:22.370 ,5,1,17.,24.0,0.,24.0,4.,24.0,0.,24.0
1979-07-16 13:07:46.370 ,1,1,1.,24.0,0.,24.0,3.,24.0,0.,24.0
1979-07-16 13:08:10.370 ,2,1,0.,24.0,2.,24.0,2.,24.0,0.,24.0
1979-07-16 13:08:34.370 ,6,1,3.,24.0,0.,24.0,2.,24.0,0.,24.0
1979-07-16 13:08:58.370 ,5,1,22.,24.0,0.,24.0,2.,24.0,0.,24.0
1979-07-16 13:09:22.370 ,1,1,1.,24.0,0.,24.0,1.,24.0,0.,24.0
1979-07-16 13:09:46.370 ,2,1,0.,24.0,0.,24.0,0.,24.0,0.,24.0
1979-07-16 13:10:10.370 ,6,1,0.,24.0,0.,24.0,0.,24.0,0.,24.0
1979-07-16 13:10:34.370 ,5,1,25.,24.0,0.,24.0,1.,24.0,0.,24.0
1979-07-16 13:10:58.370 ,1,1,0.,24.0,0.,24.0,1.,24.0,0.,24.0
1979-07-16 13:11:22.370 ,2,1,0.,24.0,1.,24.0,2.,24.0,0.,24.0
1979-07-16 13:11:46.370 ,6,1,0.,24.0,0.,24.0,1.,24.0,0.,24.0
1979-07-16 13:12:10.370 ,5,1,13.,24.0,0.,24.0,1.,24.0,0.,24.0
1979-07-16 13:12:34.370 ,1,1,0.,24.0,0.,24.0,2.,24.0,0.,24.0
1979-07-16 13:12:58.370 ,2,1,1.,24.0,0.,24.0,2.,24.0,0.,24.0
1979-07-16 13:13:22.370 ,6,1,0.,24.0,0.,24.0,3.,24.0,0.,24.0
1979-07-16 13:13:46.370 ,5,1,11.,24.0,0.,24.0,3.,24.0,0.,24.0
1979-07-16 13:14:10.370 ,1,1,3.,24.0,0.,24.0,1.,24.0,0.,24.0
1979-07-16 13:14:34.370 ,2,1,0.,24.0,1.,24.0,0.,24.0,0.,24.0
1979-07-16 13:14:58.370 ,6,1,0.,24.0,0.,24.0,0.,24.0,0.,24.0
1979-07-16 13:15:22.370 ,5,1,13.,24.0,0.,24.0,1.,24.0,0.,24.0
1979-07-16 13:15:46.370 ,1,1,1.,24.0,1.,24.0,1.,24.0,0.,24.0
1979-07-16 13:16:10.370 ,2,1,2.,24.0,1.,24.0,1.,24.0,0.,24.0
1979-07-16 13:16:34.370 ,6,1,0.,24.0,0.,24.0,0.,24.0,0.,24.0
1979-07-16 13:16:58.370 ,5,1,9.,24.0,0.,24.0,0.,24.0,0.,24.0
1979-07-16 13:17:22.370 ,1,1,1.,24.0,0.,24.0,3.,24.0,0.,24.0
1979-07-16 13:17:46.370 ,0,0,2.,24.0,0.,24.0,2.,24.0,0.,24.0
1979-07-16 13:18:10.370 ,0,0,1.,24.0,0.,24.0,1.,24.0,0.,24.0
1979-07-16 13:18:34.370 ,5,1,14.,24.0,0.,24.0,4.,24.0,0.,24.0
1979-07-16 13:18:58.370 ,5,0,1.,24.0,0.,24.0,0.,24.0,0.,24.0
1979-07-16 13:19:22.370 ,4,1,1.,24.0,0.,24.0,0.,24.0,0.,24.0
1979-07-16 13:19:46.370 ,4,0,0.,24.0,0.,24.0,0.,24.0,0.,24.0
1979-07-16 13:20:10.370 ,3,1,0.,24.0,0.,24.0,1.,24.0,0.,24.0
1979-07-16 13:20:34.370 ,3,0,0.,24.0,1.,24.0,1.,24.0,0.,24.0
1979-07-16 13:20:58.370 ,2,1,2.,24.0,0.,24.0,2.,24.0,0.,24.0
1979-07-16 13:21:22.370 ,2,0,4.,24.0,0.,24.0,1.,24.0,0.,24.0
1979-07-16 13:21:46.370 ,1,1,5.,24.0,2.,24.0,2.,24.0,0.,24.0
1979-07-16 13:22:10.370 ,1,0,3.,24.0,0.,24.0,2.,24.0,0.,24.0
1979-07-16 13:22:34.370 ,0,1,5.,24.0,0.,24.0,0.,24.0,0.,24.0
1979-07-16 13:22:58.370 ,0,0,0.,24.0,0.,24.0,2.,24.0,0.,24.0
1979-07-16 13:23:22.370 ,0,1,2.,24.0,0.,24.0,2.,24.0,0.,24.0
1979-07-16 13:23:46.370 ,0,0,0.,24.0,1.,24.0,1.,24.0,0.,24.0
1979-07-16 13:24:10.370 ,1,1,2.,24.0,1.,24.0,3.,24.0,0.,24.0
1979-07-16 13:24:34.370 ,1,0,6.,24.0,2.,24.0,1.,24.0,0.,24.0
1979-07-16 13:24:58.370 ,2,1,1.,24.0,0.,24.0,0.,24.0,0.,24.0
1979-07-16 13:25:22.370 ,2,0,9.,24.0,1.,24.0,2.,24.0,0.,24.0
1979-07-16 13:25:46.370 ,3,1,5.,24.0,0.,24.0,0.,24.0,0.,24.0
1979-07-16 13:26:10.370 ,3,0,0.,24.0,1.,24.0,5.,24.0,0.,24.0
1979-07-16 13:26:34.370 ,4,1,0.,24.0,0.,24.0,1.,24.0,0.,24.0
1979-07-16 13:26:58.370 ,4,0,1.,24.0,0.,24.0,2.,24.0,0.,24.0
1979-07-16 13:27:22.370 ,5,1,0.,24.0,1.,24.0,0.,24.0,0.,24.0
1979-07-16 13:27:46.370 ,5,0,0.,24.0,0.,24.0,3.,24.0,0.,24.0
1979-07-16 13:28:10.370 ,6,1,0.,24.0,1.,24.0,4.,24.0,0.,24.0
1979-07-16 13:28:34.370 ,6,0,0.,24.0,0.,24.0,1.,24.0,0.,24.0
1979-07-16 13:28:58.370 ,7,1,10.,24.0,0.,24.0,0.,24.0,0.,24.0
1979-07-16 13:29:22.370 ,7,0,35.,24.0,0.,24.0,1.,24.0,0.,24.0
1979-07-16 13:29:46.370 ,7,1,29.,24.0,0.,24.0,2.,24.0,0.,24.0
1979-07-16 13:30:10.370 ,7,0,31.,24.0,0.,24.0,4.,24.0,0.,24.0
1979-07-16 13:30:34.370 ,6,1,24.,24.0,0.,24.0,1.,24.0,0.,24.0
1979-07-16 13:30:58.370 ,6,0,1.,24.0,0.,24.0,3.,24.0,0.,24.0
1979-07-16 13:31:22.370 ,5,1,1.,24.0,0.,24.0,1.,24.0,0.,24.0
1979-07-16 13:31:46.370 ,5,0,1.,24.0,0.,24.0,0.,24.0,0.,24.0
1979-07-16 13:32:10.370 ,4,1,0.,24.0,0.,24.0,1.,24.0,0.,24.0
1979-07-16 13:32:34.370 ,4,0,0.,24.0,0.,24.0,4.,24.0,0.,24.0
1979-07-16 13:32:58.370 ,3,1,0.,24.0,1.,24.0,1.,24.0,0.,24.0
1979-07-16 13:33:22.370 ,3,0,0.,24.0,0.,24.0,3.,24.0,0.,24.0
1979-07-16 13:33:46.370 ,2,1,1.,24.0,1.,24.0,1.,24.0,0.,24.0
1979-07-16 13:34:10.370 ,2,0,8.,24.0,1.,24.0,0.,24.0,0.,24.0
1979-07-16 13:34:34.370 ,1,1,3.,24.0,0.,24.0,0.,24.0,0.,24.0
1979-07-16 13:34:58.370 ,1,0,1.,24.0,1.,24.0,3.,24.0,0.,24.0
1979-07-16 13:35:22.370 ,0,1,0.,24.0,0.,24.0,3.,24.0,0.,24.0
1979-07-16 13:35:46.370 ,0,0,0.,24.0,0.,24.0,3.,24.0,0.,24.0
1979-07-16 13:36:10.370 ,0,1,0.,24.0,0.,24.0,1.,24.0,0.,24.0
1979-07-16 13:36:34.370 ,0,0,0.,24.0,0.,24.0,3.,24.0,0.,24.0
1979-07-16 13:36:58.370 ,1,1,0.,24.0,1.,24.0,1.,24.0,0.,24.0
1979-07-16 13:37:22.370 ,1,0,1.,24.0,0.,24.0,1.,24.0,0.,24.0
1979-07-16 13:37:46.370 ,2,1,2.,24.0,0.,24.0,0.,24.0,0.,24.0
1979-07-16 13:38:10.370 ,2,0,0.,24.0,0.,24.0,3.,24.0,0.,24.0
1979-07-16 13:38:34.370 ,3,1,0.,24.0,0.,24.0,1.,24.0,0.,24.0
1979-07-16 13:38:58.370 ,3,0,0.,24.0,0.,24.0,1.,24.0,0.,24.0
1979-07-16 13:39:22.370 ,4,1,0.,24.0,0.,24.0,1.,24.0,0.,24.0
1979-07-16 13:39:46.370 ,4,0,1.,24.0,0.,24.0,1.,24.0,0.,24.0
1979-07-16 13:40:10.370 ,5,1,0.,24.0,0.,24.0,2.,24.0,0.,24.0
1979-07-16 13:40:34.370 ,5,0,1.,24.0,1.,24.0,1.,24.0,0.,24.0
1979-07-16 13:40:58.370 ,6,1,2.,24.0,0.,24.0,2.,24.0,0.,24.0
1979-07-16 13:41:22.370 ,6,0,1.,24.0,1.,24.0,2.,24.0,0.,24.0
1979-07-16 13:41:46.370 ,7,1,7.,24.0,0.,24.0,2.,24.0,0.,24.0
1979-07-16 13:42:10.370 ,7,0,49.,24.0,0.,24.0,2.,24.0,0.,24.0
1979-07-16 13:42:34.370 ,7,1,19.,24.0,0.,24.0,2.,24.0,0.,24.0
1979-07-16 13:42:58.370 ,7,0,32.,24.0,0.,24.0,2.,24.0,0.,24.0
1979-07-16 13:43:22.360 ,6,1,26.,24.0,0.,24.0,2.,24.0,0.,24.0
1979-07-16 13:43:46.360 ,6,0,1.,24.0,0.,24.0,1.,24.0,0.,24.0
1979-07-16 13:44:10.360 ,5,1,0.,24.0,0.,24.0,7.,24.0,0.,24.0
1979-07-16 13:44:34.360 ,5,0,0.,24.0,0.,24.0,4.,24.0,0.,24.0
1979-07-16 13:44:58.360 ,4,1,0.,24.0,1.,24.0,1.,24.0,0.,24.0
1979-07-16 13:45:22.360 ,4,0,0.,24.0,0.,24.0,3.,24.0,0.,24.0
1979-07-16 13:45:46.360 ,3,1,0.,24.0,0.,24.0,2.,24.0,0.,24.0
1979-07-16 13:46:10.360 ,3,0,0.,24.0,0.,24.0,2.,24.0,0.,24.0
1979-07-16 13:46:34.360 ,2,1,0.,24.0,0.,24.0,3.,24.0,0.,24.0
1979-07-16 13:46:58.360 ,2,0,5.,24.0,0.,24.0,3.,24.0,0.,24.0
1979-07-16 13:47:22.360 ,1,1,4.,24.0,2.,24.0,1.,24.0,0.,24.0
1979-07-16 13:47:46.360 ,1,0,2.,24.0,0.,24.0,3.,24.0,0.,24.0
1979-07-16 13:48:10.360 ,0,1,0.,24.0,0.,24.0,3.,24.0,0.,24.0
1979-07-16 13:48:34.360 ,0,0,0.,24.0,0.,24.0,3.,24.0,0.,24.0
1979-07-16 13:48:58.360 ,0,1,0.,24.0,0.,24.0,0.,24.0,0.,24.0
1979-07-16 13:49:22.360 ,0,0,0.,24.0,0.,24.0,1.,24.0,0.,24.0
1979-07-16 13:49:46.360 ,1,1,1.,24.0,1.,24.0,6.,24.0,0.,24.0
1979-07-16 13:50:10.360 ,1,0,0.,24.0,0.,24.0,2.,24.0,0.,24.0
1979-07-16 13:50:34.360 ,2,1,2.,24.0,1.,24.0,0.,24.0,0.,24.0
1979-07-16 13:50:58.360 ,2,0,3.,24.0,1.,24.0,0.,24.0,0.,24.0
1979-07-16 13:51:22.360 ,3,1,1.,24.0,0.,24.0,1.,24.0,0.,24.0
1979-07-16 13:51:46.360 ,3,0,2.,24.0,0.,24.0,1.,24.0,0.,24.0
1979-07-16 13:52:10.360 ,4,1,0.,24.0,0.,24.0,0.,24.0,0.,24.0
1979-07-16 13:52:34.360 ,4,0,0.,24.0,0.,24.0,3.,24.0,0.,24.0
1979-07-16 13:52:58.360 ,5,1,0.,24.0,0.,24.0,1.,24.0,0.,24.0
1979-07-16 13:53:22.360 ,5,0,0.,24.0,0.,24.0,2.,24.0,0.,24.0
1979-07-16 13:53:46.360 ,6,1,3.,24.0,0.,24.0,3.,24.0,0.,24.0
1979-07-16 13:54:10.360 ,6,0,1.,24.0,0.,24.0,2.,24.0,0.,24.0
1979-07-16 13:54:34.360 ,7,0,5.,24.0,0.,24.0,5.,24.0,0.,24.0
1979-07-16 13:54:58.360 ,7,0,22.,24.0,0.,24.0,3.,24.0,0.,24.0
1979-07-16 13:55:22.360 ,5,1,23.,24.0,0.,24.0,5.,24.0,0.,24.0
1979-07-16 13:55:46.360 ,1,1,2.,24.0,0.,24.0,2.,24.0,0.,24.0
1979-07-16 13:56:10.360 ,2,1,0.,24.0,0.,24.0,2.,24.0,0.,24.0
1979-07-16 13:56:34.360 ,6,1,0.,24.0,0.,24.0,0.,24.0,0.,24.0
1979-07-16 13:56:58.360 ,5,1,17.,24.0,0.,24.0,3.,24.0,0.,24.0
1979-07-16 13:57:22.360 ,1,1,1.,24.0,0.,24.0,4.,24.0,0.,24.0
1979-07-16 13:57:46.360 ,2,1,0.,24.0,1.,24.0,0.,24.0,0.,24.0
1979-07-16 13:58:10.360 ,6,1,1.,24.0,0.,24.0,1.,24.0,0.,24.0
1979-07-16 13:58:34.360 ,5,1,17.,24.0,0.,24.0,3.,24.0,0.,24.0
1979-07-16 13:58:58.360 ,1,1,1.,24.0,0.,24.0,1.,24.0,0.,24.0
1979-07-16 13:59:22.360 ,2,1,0.,24.0,1.,24.0,6.,24.0,0.,24.0
1979-07-16 13:59:46.360 ,6,1,0.,24.0,0.,24.0,6.,24.0,0.,24.0
1979-07-16 14:00:10.360 ,5,1,23.,24.0,0.,24.0,1.,24.0,0.,24.0
1979-07-16 14:00:34.370 ,1,1,1.,24.0,0.,24.0,4.,24.0,0.,24.0
1979-07-16 14:00:58.370 ,2,1,1.,24.0,0.,24.0,2.,24.0,0.,24.0
1979-07-16 14:01:22.370 ,6,1,0.,24.0,0.,24.0,3.,24.0,0.,24.0
1979-07-16 14:01:46.370 ,5,1,11.,24.0,0.,24.0,1.,24.0,0.,24.0
1979-07-16 14:02:10.370 ,1,1,1.,24.0,0.,24.0,0.,24.0,0.,24.0
1979-07-16 14:02:34.360 ,2,1,0.,24.0,0.,24.0,3.,24.0,0.,24.0
1979-07-16 14:02:58.360 ,6,1,0.,24.0,0.,24.0,0.,24.0,0.,24.0
1979-07-16 14:03:22.360 ,5,1,15.,24.0,0.,24.0,1.,24.0,0.,24.0
1979-07-16 14:03:46.360 ,1,1,0.,24.0,0.,24.0,2.,24.0,0.,24.0
1979-07-16 14:04:10.360 ,2,1,0.,24.0,0.,24.0,1.,24.0,0.,24.0
1979-07-16 14:04:34.360 ,6,1,1.,24.0,0.,24.0,0.,24.0,0.,24.0
1979-07-16 14:04:58.360 ,5,1,15.,24.0,0.,24.0,2.,24.0,0.,24.0
1979-07-16 14:05:22.360 ,1,1,0.,24.0,0.,24.0,0.,24.0,0.,24.0
1979-07-16 14:05:46.360 ,0,0,0.,24.0,0.,24.0,2.,24.0,0.,24.0
1979-07-16 14:06:10.360 ,0,0,0.,24.0,0.,24.0,0.,24.0,0.,24.0
1979-07-16 14:06:34.360 ,5,1,10.,24.0,0.,24.0,0.,24.0,0.,24.0
1979-07-16 14:06:58.360 ,5,0,0.,24.0,0.,24.0,0.,24.0,0.,24.0
1979-07-16 14:07:22.360 ,4,1,1.,24.0,0.,24.0,1.,24.0,0.,24.0
1979-07-16 14:07:46.360 ,4,0,0.,24.0,0.,24.0,1.,24.0,0.,24.0
1979-07-16 14:08:10.360 ,3,1,0.,24.0,0.,24.0,0.,24.0,0.,24.0
1979-07-16 14:08:34.360 ,3,0,1.,24.0,0.,24.0,0.,24.0,0.,24.0
1979-07-16 14:08:58.360 ,2,1,0.,24.0,1.,24.0,2.,24.0,0.,24.0
1979-07-16 14:09:22.360 ,2,0,2.,24.0,0.,24.0,0.,24.0,0.,24.0
1979-07-16 14:09:46.360 ,1,1,0.,24.0,1.,24.0,2.,24.0,0.,24.0
1979-07-16 14:10:10.360 ,1,0,0.,24.0,0.,24.0,0.,24.0,0.,24.0
1979-07-16 14:10:34.360 ,0,1,2.,24.0,0.,24.0,1.,24.0,0.,24.0
1979-07-16 14:10:58.360 ,0,0,1.,24.0,0.,24.0,2.,24.0,0.,24.0
1979-07-16 14:11:22.360 ,0,1,1.,24.0,1.,24.0,0.,24.0,0.,24.0
1979-07-16 14:11:46.360 ,0,0,0.,24.0,0.,24.0,1.,24.0,0.,24.0
1979-07-16 14:12:10.360 ,1,1,1.,24.0,0.,24.0,1.,24.0,0.,24.0
1979-07-16 14:12:34.360 ,1,0,0.,24.0,0.,24.0,1.,24.0,0.,24.0
1979-07-16 14:12:58.360 ,2,1,0.,24.0,1.,24.0,1.,24.0,0.,24.0
1979-07-16 14:13:22.360 ,2,0,1.,24.0,0.,24.0,0.,24.0,0.,24.0
1979-07-16 14:13:46.360 ,3,1,2.,24.0,0.,24.0,3.,24.0,0.,24.0
1979-07-16 14:14:10.360 ,3,0,0.,24.0,0.,24.0,0.,24.0,0.,24.0
1979-07-16 14:14:34.360 ,4,1,0.,24.0,1.,24.0,0.,24.0,0.,24.0
1979-07-16 14:14:58.360 ,4,0,0.,24.0,1.,24.0,2.,24.0,0.,24.0
1979-07-16 14:15:22.360 ,5,1,1.,24.0,1.,24.0,2.,24.0,0.,24.0
1979-07-16 14:15:46.360 ,5,0,0.,24.0,0.,24.0,1.,24.0,0.,24.0
1979-07-16 14:16:10.360 ,6,1,0.,24.0,0.,24.0,1.,24.0,0.,24.0
1979-07-16 14:16:34.360 ,6,0,0.,24.0,2.,24.0,1.,24.0,0.,24.0
1979-07-16 14:16:58.360 ,7,1,11.,24.0,0.,24.0,3.,24.0,0.,24.0
1979-07-16 14:17:22.360 ,7,0,34.,24.0,0.,24.0,4.,24.0,0.,24.0
1979-07-16 14:17:46.360 ,7,1,24.,24.0,0.,24.0,2.,24.0,0.,24.0
1979-07-16 14:18:10.360 ,7,0,27.,24.0,0.,24.0,0.,24.0,0.,24.0
1979-07-16 14:18:34.360 ,6,1,23.,24.0,1.,24.0,0.,24.0,0.,24.0
1979-07-16 14:18:58.360 ,6,0,0.,24.0,0.,24.0,0.,24.0,0.,24.0
1979-07-16 14:19:22.360 ,5,1,0.,24.0,0.,24.0,2.,24.0,0.,24.0
1979-07-16 14:19:46.360 ,5,0,0.,24.0,0.,24.0,3.,24.0,0.,24.0
1979-07-16 14:20:10.360 ,4,1,0.,24.0,0.,24.0,1.,24.0,0.,24.0
1979-07-16 14:20:34.360 ,4,0,0.,24.0,0.,24.0,0.,24.0,0.,24.0
1979-07-16 14:20:58.360 ,3,1,0.,24.0,1.,24.0,2.,24.0,0.,24.0
1979-07-16 14:21:22.360 ,3,0,0.,24.0,0.,24.0,1.,24.0,0.,24.0
1979-07-16 14:21:46.360 ,2,1,1.,24.0,0.,24.0,1.,24.0,0.,24.0
1979-07-16 14:22:10.360 ,2,0,0.,24.0,0.,24.0,0.,24.0,0.,24.0
1979-07-16 14:22:34.360 ,1,1,1.,24.0,1.,24.0,0.,24.0,0.,24.0
1979-07-16 14:22:58.360 ,1,0,0.,24.0,0.,24.0,1.,24.0,0.,24.0
1979-07-16 14:23:22.360 ,0,1,2.,24.0,1.,24.0,3.,24.0,0.,24.0
1979-07-16 14:23:46.360 ,0,0,0.,24.0,0.,24.0,2.,24.0,0.,24.0
1979-07-16 14:24:10.360 ,0,1,1.,24.0,0.,24.0,1.,24.0,0.,24.0
1979-07-16 14:24:34.360 ,0,0,0.,24.0,0.,24.0,3.,24.0,0.,24.0
1979-07-16 14:25:46.360 ,0,0,0.,24.0,1.,24.0,3.,24.0,0.,24.0
1979-07-16 14:26:10.360 ,0,0,1.,24.0,0.,24.0,1.,24.0,0.,24.0
1979-07-16 14:26:34.360 ,3,1,2.,24.0,1.,24.0,0.,24.0,0.,24.0
1979-07-16 14:26:58.360 ,3,0,1.,24.0,0.,24.0,2.,24.0,0.,24.0
1979-07-16 14:27:22.360 ,4,1,1.,24.0,0.,24.0,0.,24.0,0.,24.0
1979-07-16 14:27:46.360 ,4,0,1.,24.0,0.,24.0,2.,24.0,0.,24.0
1979-07-16 14:28:10.360 ,5,1,2.,24.0,0.,24.0,1.,24.0,0.,24.0
1979-07-16 14:28:34.360 ,5,0,0.,24.0,0.,24.0,0.,24.0,0.,24.0
1979-07-16 14:28:58.360 ,6,1,1.,24.0,0.,24.0,2.,24.0,0.,24.0
1979-07-16 14:29:22.360 ,6,0,1.,24.0,0.,24.0,1.,24.0,0.,24.0
1979-07-16 14:29:46.360 ,7,1,4.,24.0,0.,24.0,0.,24.0,0.,24.0
1979-07-16 14:30:10.360 ,7,0,26.,24.0,0.,24.0,1.,24.0,0.,24.0
1979-07-16 14:30:34.360 ,7,1,29.,24.0,0.,24.0,0.,24.0,0.,24.0
1979-07-16 14:30:58.360 ,7,0,25.,24.0,0.,24.0,0.,24.0,0.,24.0
1979-07-16 14:31:22.360 ,6,1,20.,24.0,0.,24.0,1.,24.0,0.,24.0
1979-07-16 14:31:46.360 ,6,0,1.,24.0,2.,24.0,0.,24.0,0.,24.0
1979-07-16 14:32:10.360 ,5,1,2.,24.0,0.,24.0,0.,24.0,0.,24.0
1979-07-16 14:32:34.360 ,5,0,1.,24.0,0.,24.0,1.,24.0,0.,24.0
1979-07-16 14:32:58.360 ,4,1,1.,24.0,1.,24.0,1.,24.0,0.,24.0
1979-07-16 14:33:22.360 ,4,0,0.,24.0,0.,24.0,1.,24.0,0.,24.0
1979-07-16 14:33:46.360 ,3,1,0.,24.0,0.,24.0,1.,24.0,0.,24.0
1979-07-16 14:34:10.360 ,3,0,1.,24.0,0.,24.0,0.,24.0,0.,24.0
1979-07-16 14:34:34.360 ,2,1,0.,24.0,0.,24.0,0.,24.0,0.,24.0
1979-07-16 14:34:58.360 ,2,0,3.,24.0,0.,24.0,1.,24.0,0.,24.0
1979-07-16 14:35:22.360 ,1,1,0.,24.0,2.,24.0,0.,24.0,0.,24.0
1979-07-16 14:35:46.360 ,1,0,0.,24.0,0.,24.0,2.,24.0,0.,24.0
1979-07-16 14:36:10.360 ,0,1,0.,24.0,0.,24.0,0.,24.0,0.,24.0
1979-07-16 14:36:34.360 ,0,0,0.,24.0,1.,24.0,0.,24.0,0.,24.0
1979-07-16 14:36:58.360 ,0,1,1.,24.0,0.,24.0,0.,24.0,0.,24.0
1979-07-16 14:37:22.360 ,0,0,2.,24.0,0.,24.0,1.,24.0,0.,24.0
1979-07-16 14:37:46.360 ,1,1,1.,24.0,1.,24.0,0.,24.0,0.,24.0
1979-07-16 14:38:10.360 ,1,0,1.,24.0,1.,24.0,0.,24.0,0.,24.0
1979-07-16 14:38:34.360 ,2,1,0.,24.0,0.,24.0,0.,24.0,0.,24.0
1979-07-16 14:38:58.360 ,2,0,2.,24.0,0.,24.0,0.,24.0,0.,24.0